Погода в Оскарсхамне

Швеция     57°15′51″N   16°26′28″E
темп.,
°C
ветер,
м/с
пор.,
м/с
влажн.,
%
обл.,
%
осадки,
мм/ч
давл.,
гПа
погр.,
м
20 апреля, вт
вт2023:00+4с47845 0.0 1024126
02:00+4с48865 0.0 1022128
05:00+3с48905 0.0 1021125
08:00+6с46725 0.0 1020192
11:00+9св45562 0.0 1019497
14:00+9св445725 0.0 1017609
17:00+8всв446235 0.0 1016344
20:00+5всв22830 0.0 101438
21 апреля, ср
ср2123:00+4з11815 0.0 101310
02:00+4юз23755 0.0 101145
05:00+4зюз33803 0.0 100960
08:00+8з3759100 0.0 1007213
11:00+12зюз475247 0.0 1005808
14:00+12зюз71046100 0.0 10031251
17:00+11зюз6103323 0.0 10021594
20:00+7зюз611470 0.0 1001647
22 апреля, чт
чт2223:00+4юз611615 0.0 1000618
02:00+3юз5995100 0.1 997627
05:00+3зсз51097100 2.4 997639
08:00+3сз5109499 4.1 999641
11:00+4зсз697998 0.1 1001885
14:00+5сз6968100 0.1 10031132
17:00+5сз71069100 0.1 10051141
20:00+3сз8138065 0.3 10071092
23 апреля, пт
пт2323:00+2сз71389100 0.1 10081263
02:00+2сз61381100 0.2 10091202
05:00+2сз71368100 0.0 10101085
08:00+3сз8135872 0.0 10111203
11:00+5сз81149100 0.0 10121685
14:00+6сз71050100 0.0 10141411
17:00+7ссз61048100 0.0 10151329
20:00+6ссз4852100 0.1 1017396
24 апреля, сб
сб2423:00+2зсз41068100 0.1 1017256
02:00+2зсз611635 0.1 1018401
05:00+1сз511711 0.0 1018496
08:00+3сз69583 0.0 1018931
11:00+5ссз6948100 0.0 10181893
14:00+5с6853100 0.1 10191616
17:00+5с5863100 0.4 10201260
20:00+3с389368 0.7 1021486